Location: Rounton
(54.4000°N, 1.3500°W)
Time: 22:02:35
(UTC+01:00)

deb Delta 126 - Pass Details

Date: 05 July 2022
Orbit: 1120 x 1970 km, 101.5° (Epoch: 17 August)

Event Time Altitude Azimuth Distance (km) Brightness Sun altitude
Rises 03:00:41 0° 61° (ENE) 4,778 ? -9.2°
Reaches altitude 10° 03:04:35 10° 45° (NE) 3,934 ? -9.0°
Maximum altitude 03:10:22 19° 7° (N) 3,472 ? -8.6°
Drops below altitude 10° 03:16:35 10° 329° (NNW) 4,273 ? -8.2°
Sets 03:21:04 0° 314° (NW) 5,349 ? -7.8°
